Weather History for Tappahannock, VA

Change the Weather History Date:

Sunday, May 4, 2014

  Actual Average (KRIC) Record (KRIC)
Temperature  
Mean Temperature 64 °F 63 °F  
Max Temperature 82 °F 75 °F 92 °F (1965)
Min Temperature 45 °F 51 °F 32 °F (1986)
Degree Days  
Heating Degree Days 2 4  
Month to date heating degree days 16  
Since 1 July heating degree days 3708  
Cooling Degree Days 0 2  
Month to date cooling degree days 8  
Year to date cooling degree days 50  
Growing Degree Days 14 (Base 50)    
Moisture  
Dew Point 37 °F    
Average Humidity 42    
Maximum Humidity 87    
Minimum Humidity 13    
Precipitation  
Precipitation 0.00 in 0.11 in 1.90 in (1978)
Month to date precipitation 0.44  
Year to date precipitation 13.55  
Snow  
Snow 0.00 in 0.00 in 0.00 in (2002)
Month to date snowfall 0.0  
Since 1 July snowfall 10.3  
Snow Depth -    
Sea Level Pressure  
Sea Level Pressure 29.83 in    
Wind  
Wind Speed 6 mph (WSW)    
Max Wind Speed 22 mph    
Max Gust Speed 30 mph    
Visibility 10 miles    
Events      
T = Trace of Precipitation, MM = Missing Value Source: NWS Daily Summary

Daily Weather History Graph

Daily Weather History Graph

Search for Another Location

Airport:

Trip Planner

Search our weather history database for the weather conditions in past years. The results will help you decide how hot, cold, wet, or windy it might be!

Date:

Astronomy

May. 04, 2014 Rise Set
Actual Time 6:08 AM EDT 8:00 PM EDT
Civil Twilight 5:39 AM EDT 8:29 PM EDT
Nautical Twilight 5:05 AM EDT 9:04 PM EDT
Astronomical Twilight 4:28 AM EDT 9:41 PM EDT
Moon 10:30 AM EDT (5/4) 12:04 AM EDT (5/4)
Length of Visible Light 14h 49m
Length of Day
13h 52m
Waxing Crescent, 27% of the Moon is Illuminated
May 4
Waxing Crescent
May 6
First Quarter
May 14
Full
May 21
Last Quarter
May 28
New

Hourly Weather History & Observations

Time (EDT) Temp. Dew Point Humidity Pressure Visibility Wind Dir Wind Speed Gust Speed Precip Events Conditions
12:15 AM 55.2 °F 41.9 °F 61% 29.84 in 10.0 mi SW 3.5 mph - N/A   Clear
12:35 AM 54.1 °F 42.8 °F 66% 29.84 in 10.0 mi Calm Calm - N/A   Clear
12:55 AM 51.8 °F 41.9 °F 69% 29.85 in 10.0 mi West 3.5 mph - N/A   Clear
1:15 AM 50.9 °F 42.6 °F 73% 29.85 in 10.0 mi SW 3.5 mph - N/A   Clear
1:35 AM 52.3 °F 43.2 °F 71% 29.86 in 10.0 mi Calm Calm - N/A   Clear
1:55 AM 53.1 °F 42.1 °F 66% 29.86 in 10.0 mi Calm Calm - N/A   Clear
2:15 AM 51.3 °F 43.2 °F 74% 29.86 in 10.0 mi Calm Calm - N/A   Clear
2:35 AM 52.2 °F 41.9 °F 68% 29.86 in 10.0 mi WNW 3.5 mph - N/A   Clear
2:55 AM 54.5 °F 41.0 °F 60% 29.87 in 10.0 mi Calm Calm - N/A   Clear
3:15 AM 51.4 °F 42.4 °F 71% 29.87 in 10.0 mi WNW 3.5 mph - N/A   Clear
3:35 AM 52.2 °F 41.5 °F 67% 29.88 in 10.0 mi West 3.5 mph - N/A   Clear
3:55 AM 50.4 °F 41.9 °F 73% 29.88 in 10.0 mi Calm Calm - N/A   Clear
4:15 AM 48.9 °F 41.5 °F 76% 29.88 in 10.0 mi West 3.5 mph - N/A   Clear
4:35 AM 52.0 °F 40.8 °F 66% 29.88 in 10.0 mi West 5.8 mph - N/A   Clear
4:55 AM 54.5 °F 39.4 °F 57% 29.88 in 10.0 mi West 3.5 mph - N/A   Clear
5:15 AM 46.6 °F 41.2 °F 81% 29.89 in 10.0 mi Calm Calm - N/A   Clear
5:35 AM 46.9 °F 43.2 °F 87% 29.90 in 10.0 mi Calm Calm - N/A   Clear
6:15 AM 45.1 °F 41.2 °F 86% 29.90 in 10.0 mi Calm Calm - N/A   Clear
6:35 AM 45.5 °F 41.7 °F 87% 29.91 in 10.0 mi Calm Calm - N/A   Clear
6:55 AM 47.5 °F 43.3 °F 86% 29.91 in 10.0 mi Calm Calm - N/A   Clear
7:15 AM 50.2 °F 45.5 °F 84% 29.92 in 10.0 mi Calm Calm - N/A   Clear
7:35 AM 54.5 °F 45.9 °F 73% 29.90 in 10.0 mi Calm Calm - N/A   Clear
7:55 AM 61.5 °F 41.4 °F 48% 29.91 in 10.0 mi WSW 4.6 mph - N/A   Clear
8:15 AM 63.7 °F 37.2 °F 38% 29.91 in 10.0 mi WSW 5.8 mph - N/A   Clear
8:35 AM 65.7 °F 37.0 °F 35% 29.91 in 10.0 mi WSW 3.5 mph - N/A   Clear
8:55 AM 67.5 °F 35.2 °F 30% 29.91 in 10.0 mi SW 8.1 mph - N/A   Clear
9:15 AM 68.5 °F 34.7 °F 29% 29.91 in 10.0 mi WSW 6.9 mph - N/A   Clear
9:35 AM 69.8 °F 35.2 °F 28% 29.90 in 10.0 mi SW 10.4 mph - N/A   Clear
9:55 AM 71.1 °F 33.1 °F 25% 29.89 in 10.0 mi SW 11.5 mph 17.3 mph N/A   Clear
10:15 AM 72.3 °F 31.3 °F 22% 29.88 in 10.0 mi WSW 10.4 mph 16.1 mph N/A   Clear
10:35 AM 73.6 °F 31.3 °F 21% 29.87 in 10.0 mi SW 10.4 mph - N/A   Clear
10:55 AM 73.0 °F 29.8 °F 20% 29.87 in 10.0 mi WSW 16.1 mph 20.7 mph N/A   Clear
11:15 AM 73.9 °F 30.6 °F 20% 29.86 in 10.0 mi WSW 10.4 mph 19.6 mph N/A   Clear
11:35 AM 74.7 °F 29.5 °F 19% 29.85 in 10.0 mi SW 11.5 mph 19.6 mph N/A   Clear
11:55 AM 75.2 °F 30.4 °F 19% 29.84 in 10.0 mi SW 11.5 mph 18.4 mph N/A   Clear
12:35 PM 76.6 °F 31.1 °F 19% 29.82 in 10.0 mi SW 15.0 mph 21.9 mph N/A   Clear
12:55 PM 77.2 °F 30.6 °F 18% 29.81 in 10.0 mi WSW 15.0 mph 25.3 mph N/A   Clear
1:15 PM 77.9 °F 30.9 °F 18% 29.80 in 10.0 mi SSW 11.5 mph 23.0 mph N/A   Clear
1:35 PM 78.3 °F 31.3 °F 18% 29.79 in 10.0 mi SW 11.5 mph 24.2 mph N/A   Clear
1:55 PM 78.6 °F 30.6 °F 17% 29.78 in 10.0 mi WSW 18.4 mph 24.2 mph N/A   Clear
2:15 PM 79.3 °F 32.4 °F 18% 29.77 in 10.0 mi West 16.1 mph 25.3 mph N/A   Clear
2:35 PM 79.3 °F 31.8 °F 18% 29.76 in 10.0 mi WSW 17.3 mph 25.3 mph N/A   Clear
2:55 PM 79.2 °F 31.5 °F 18% 29.75 in 10.0 mi SW 16.1 mph 20.7 mph N/A   Clear
3:15 PM 80.6 °F 33.4 °F 18% 29.74 in 10.0 mi WSW 9.2 mph 20.7 mph N/A   Clear
3:35 PM 81.0 °F 32.5 °F 17% 29.73 in 10.0 mi WSW 18.4 mph 26.5 mph N/A   Clear
3:55 PM 81.5 °F 33.8 °F 18% 29.72 in 10.0 mi WSW 10.4 mph 26.5 mph N/A   Clear
4:15 PM 81.3 °F 32.9 °F 17% 29.72 in 10.0 mi WSW 15.0 mph 21.9 mph N/A   Clear
4:35 PM 82.0 °F 32.9 °F 17% 29.71 in 10.0 mi WSW 13.8 mph 19.6 mph N/A   Clear
4:55 PM 82.8 °F 31.5 °F 16% 29.70 in 10.0 mi West 16.1 mph 24.2 mph N/A   Clear
5:15 PM 82.9 °F 26.8 °F 13% 29.71 in 10.0 mi West 21.9 mph 28.8 mph N/A   Clear
5:35 PM 82.8 °F 27.9 °F 14% 29.71 in 10.0 mi West 13.8 mph 29.9 mph N/A   Clear
5:55 PM 82.6 °F 27.0 °F 13% 29.72 in 10.0 mi West 16.1 mph 26.5 mph N/A   Clear
6:15 PM 82.0 °F 27.9 °F 14% 29.72 in 10.0 mi West 16.1 mph 25.3 mph N/A   Clear
6:35 PM 81.0 °F 28.0 °F 14% 29.73 in 10.0 mi West 15.0 mph 21.9 mph N/A   Clear
6:55 PM 80.1 °F 28.6 °F 15% 29.74 in 10.0 mi WNW 12.7 mph 20.7 mph N/A   Clear
7:15 PM 78.6 °F 29.1 °F 16% 29.75 in 10.0 mi WNW 6.9 mph 20.7 mph N/A   Clear
7:35 PM 77.4 °F 29.8 °F 18% 29.75 in 10.0 mi NW 6.9 mph - N/A   Scattered Clouds
7:55 PM 68.7 °F 39.0 °F 34% 29.78 in 10.0 mi NE 6.9 mph - N/A   Scattered Clouds
8:15 PM 65.3 °F 40.5 °F 40% 29.80 in 10.0 mi NE 5.8 mph - N/A   Clear
8:35 PM 63.7 °F 40.6 °F 43% 29.81 in 10.0 mi NNE 5.8 mph - N/A   Clear
8:55 PM 63.5 °F 40.8 °F 43% 29.84 in 10.0 mi Calm Calm - N/A   Clear
9:15 PM 62.8 °F 40.3 °F 44% 29.86 in 10.0 mi NNE 6.9 mph - N/A   Clear
9:35 PM 62.6 °F 39.6 °F 43% 29.87 in 10.0 mi NNE 4.6 mph - N/A   Clear
9:55 PM 61.2 °F 40.3 °F 46% 29.88 in 10.0 mi NNE 4.6 mph - N/A   Clear
10:15 PM 60.8 °F 40.6 °F 47% 29.89 in 10.0 mi NE 3.5 mph - N/A   Scattered Clouds
10:35 PM 60.1 °F 41.0 °F 49% 29.89 in 10.0 mi Calm Calm - N/A   Clear
10:55 PM 60.3 °F 41.0 °F 49% 29.90 in 10.0 mi Calm Calm - N/A   Clear
11:15 PM 58.8 °F 41.9 °F 53% 29.90 in 10.0 mi Calm Calm - N/A   Clear
11:55 PM 53.6 °F 43.2 °F 68% 29.91 in 10.0 mi Calm Calm - N/A   Clear